Weather History for Mt. Clemens, MI

Change the Weather History Date:

Wednesday, November 7, 2012

  Actual Average Record
Temperature  
Mean Temperature 37 °F -  
Max Temperature 46 °F 48 °F 64 °F (1975)
Min Temperature 28 °F 34 °F 19 °F (1991)
Degree Days  
Heating Degree Days 28    
Moisture  
Dew Point 27 °F    
Average Humidity 66    
Maximum Humidity 86    
Minimum Humidity 43    
Precipitation  
Precipitation 0.00 in - - ()
Sea Level Pressure  
Sea Level Pressure 30.10 in    
Wind  
Wind Speed 8 mph (NE)    
Max Wind Speed 12 mph    
Max Gust Speed -    
Visibility 11 miles    
Events      
Averages and records for this station are not official NWS values.
T = Trace of Precipitation, MM = Missing Value Source: NWS Daily Summary

Daily Weather History Graph

Daily Weather History Graph

Search for Another Location

Airport:

Trip Planner

Search our weather history database for the weather conditions in past years. The results will help you decide how hot, cold, wet, or windy it might be!

Date:

Astronomy

Nov. 07, 2012 Rise Set
Actual Time 7:13 AM EST 5:16 PM EST
Civil Twilight 6:43 AM EST 5:46 PM EST
Nautical Twilight 6:09 AM EST 6:19 PM EST
Astronomical Twilight 5:36 AM EST 6:52 PM EST
Moon No Moon Rise 1:33 PM EST (11/7)
Length of Visible Light 11h 02m
Length of Day
10h 03m
Last Quarter, 43% of the Moon is Illuminated
Nov 7
Last Quarter
Nov 13
New
Nov 20
First Quarter
Nov 28
Full
Dec 6
Last Quarter

Hourly Weather History & Observations

Time (EST) Temp. Windchill Dew Point Humidity Pressure Visibility Wind Dir Wind Speed Gust Speed Precip Events Conditions
4:55 AM 33.8 °F 25.8 °F 24.8 °F 70% 30.04 in 10.0 mi NNE 10.4 mph - N/A   Overcast
5:55 AM 30.2 °F 24.3 °F 24.8 °F 80% 30.04 in 10.0 mi North 5.8 mph - N/A   Mostly Cloudy
6:55 AM 28.4 °F 22.2 °F 24.8 °F 86% 30.04 in 10.0 mi North 5.8 mph - N/A   Scattered Clouds
7:55 AM 30.2 °F 25.4 °F 26.6 °F 86% 30.06 in 7.0 mi NNE 4.6 mph - N/A   Scattered Clouds
8:55 AM 35.6 °F 29.2 °F 28.4 °F 75% 30.08 in 7.0 mi ENE 8.1 mph - N/A   Partly Cloudy
9:55 AM 41.0 °F 34.7 °F 28.4 °F 61% 30.09 in 7.0 mi ENE 10.4 mph - N/A   Partly Cloudy
10:55 AM 42.8 °F 36.6 °F 26.6 °F 53% 30.10 in 10.0 mi ENE 11.5 mph - N/A   Clear
11:55 AM 44.6 °F 38.8 °F 26.6 °F 49% 30.11 in 10.0 mi NE 11.5 mph - N/A   Partly Cloudy
12:55 PM 46.4 °F 41.9 °F 24.8 °F 43% 30.09 in 10.0 mi ENE 9.2 mph - N/A   Partly Cloudy
1:55 PM 46.4 °F 44.3 °F 26.6 °F 46% 30.08 in 12.0 mi East 4.6 mph - N/A   Partly Cloudy
2:55 PM 46.4 °F 41.9 °F 26.6 °F 46% 30.08 in 12.0 mi NNE 9.2 mph - N/A   Partly Cloudy
3:55 PM 46.4 °F 42.9 °F 28.4 °F 50% 30.08 in 12.0 mi East 6.9 mph - N/A   Partly Cloudy
4:55 PM 42.8 °F 37.5 °F 26.6 °F 53% 30.10 in 12.0 mi NNE 9.2 mph - N/A   Partly Cloudy
5:55 PM 39.2 °F 33.0 °F 28.4 °F 65% 30.13 in 12.0 mi NNE 9.2 mph - N/A   Partly Cloudy
6:55 PM 37.4 °F 30.8 °F 28.4 °F 70% 30.14 in 12.0 mi NNE 9.2 mph - N/A   Partly Cloudy
7:55 PM 33.8 °F 27.7 °F 28.4 °F 81% 30.15 in 12.0 mi NNE 6.9 mph - N/A   Partly Cloudy
8:55 PM 32.0 °F 26.4 °F 26.6 °F 80% 30.16 in 12.0 mi North 5.8 mph - N/A   Clear
9:55 PM 32.0 °F 27.5 °F 26.6 °F 80% 30.17 in 12.0 mi North 4.6 mph - N/A   Clear
10:55 PM 30.2 °F 26.7 °F 26.6 °F 86% 30.17 in 12.0 mi NNW 3.5 mph - N/A   Clear